Location: Zagreb
(45.8000°N, 16.0000°E)
Time: 19:12:16
(UTC+01:00)

DX 1 - Pass Details

Date: 03 November 2020
Orbit: 619 x 630 km, 98.5° (Epoch: 01 December)

Event Time Altitude Azimuth Distance (km) Brightness Sun altitude
Rises 05:34:27 0° 172° (S) 2,884 ? -11.7°
Reaches altitude 10° 05:36:39 10° 176° (S) 1,981 ? -11.3°
Maximum altitude 05:40:55 64° 258° (WSW) 688 ? -10.6°
Drops below altitude 10° 05:45:14 10° 340° (NNW) 1,996 ? -9.9°
Sets 05:47:27 0° 344° (NNW) 2,907 ? -9.5°
